WESTFORD NEEDLES, 2367

Orbit data source: Space-Track

WESTFORD NEEDLES, 2367 is space debris originally from a launch on Thu, 09 May 1963 UTC launched from the Air Force Western Test Range (AFWTR). Debris objects in space refer to the collection of defunct objects orbiting the Earth. Examples of debris include non-operational satellites, rocket bodies, and fragments generated from explosions, collisions, or faulty payload assembly.

Loading next visibility...
Identifier
2367, 1963-014S
Orbit
Active
Last TLE update
1 day ago
Origin
Manufacturer
Unknown
Mission
Spacecraft
Bus & Motor
Unknown
Mass
Unknown
Launch date (UTC)
1963-05-09 (62 years ago)
Launch vehicle
Unknown
Launch site
Air Force Western Test Range (AFWTR)
Object type
Payload
Rocket body
Debris
Shape & HBR
Unknown
Radar Cross Section
Medium (>0.1 m² and <1 m²)

Expand to show TLE details & history

TLE from 1 day ago
0 WESTFORD NEEDLES
1  2367U 63014S   25172.36569330  .00000006  00000-0  00000+0 0  9999
2  2367  84.6216 151.8315 2723923 197.6219 150.8272  8.92050937979726
Epoch: 2025-06-21T08:46Z
TLE epoch observation values (Epoch: 2025-06-21T08:46:35.901Z)
Latitude
-0.00005°
Longitude
110.37619°
Altitude
5,906.429 km
Speed
4.932 km/s
True Right ascension
10h 07m 19s
True Declination
0° 00' 00"
Sunlit
Object was in daylight at epoch
Visualization orbit readout
Latitude
23.50361°
Longitude
112.41618°
Altitude
6,080.161 km
Speed
4.84 km/s
Apparent Right ascension
11h 15m 39s
Apparent Declination
3° 22' 46"
Sunlit
Object is in daylight
Visualization observer readout
Local Sidereal Time
01:44:41
Azimuth
47.437° ENE
Elevation
-34.859°
Doppler factor
1
Orbital elements
Apogee altitude
6,114.525 km
Perigee altitude
765.695 km
Semi-major axis
9,818.247 km
Eccentricity
0.27239
Inclination
84.6216°
RAAN
151.8315°
Arg. of periapsis
197.6219°
True anomaly
Unknown
Mean anomaly
150.8272°
Eccentric anomaly
Unknown
Mean motion
2.23096 °/min
Orbital period
161.37 mins
BSTAR
0
Loading maneuver chart data...
Loading SW <> Apogee altitude chart data...

WESTFORD NEEDLES Visibility forecast

Observer location: undefined°, undefined°

Span
Click to sort rows by Start time (UTC) header in descending order
Start Az.
Max El. time (UTC)
Max El. Az.
Max El.
End time (UTC)
End Az.
41 mins2025-06-22 19:57:01.477Z108.068° ESE2025-06-22 20:20:01.477Z65.25° ENE25.253°2025-06-22 20:38:01.477Z19.488° NNE
59 mins2025-06-22 22:24:01.477Z167.898° S2025-06-22 22:58:01.477Z81.764° E44.678°2025-06-22 23:23:01.477Z6.778° NNE
54 mins2025-06-23 01:11:01.477Z226.324° WSW2025-06-23 01:42:01.477Z290.358° WNW32.314°2025-06-23 02:05:01.477Z357.571° N
4 mins2025-06-23 07:41:01.477Z25.532° NE2025-06-23 07:43:01.477Z35.106° NE10.928°2025-06-23 07:45:01.477Z45.956° ENE
17 mins2025-06-23 10:20:01.477Z355.637° N2025-06-23 10:31:01.477Z44.823° NE44.436°2025-06-23 10:37:01.477Z170.67° S
|